Printer-friendly version

IAU Minor Planet Center

Minor Planet Center

MPEC 2008-F46 : 2008 FN

The following Minor Planet Electronic Circular may be linked-to from your own Web pages, but must not otherwise be redistributed electronically.


Read MPEC 2008-F45 Read MPEC 2008-F47


M.P.E.C. 2008-F46                                Issued 2008 Mar. 28, 15:46 UT

     The Minor Planet Electronic Circulars contain information on unusual
         minor planets and routine data on comets.  They are published
   on behalf of Commission 20 of the International Astronomical Union by the
          Minor Planet Center, Smithsonian Astrophysical Observatory,
                          Cambridge, MA 02138, U.S.A.

             Prepared using the Tamkin Foundation Computer Network

                              MPC@CFA.HARVARD.EDU
          URL http://www.cfa.harvard.edu/iau/mpc.html  ISSN 1523-6714

                                    2008 FN

Observations:
     K08F00N* C2008 03 27.45915 17 34 51.52 +23 26 53.5          19.9 V EF046G96
     K08F00N  C2008 03 27.46911 17 34 49.69 +23 26 43.6          19.8 V EF046G96
     K08F00N  C2008 03 27.47910 17 34 47.82 +23 26 33.7          19.7 V EF046G96
     K08F00N  C2008 03 27.48907 17 34 45.94 +23 26 23.5          19.7 V EF046G96
     K08F00N  C2008 03 27.49500 17 34 44.86 +23 26 17.7          19.8 V EF046G96
     K08F00N  C2008 03 27.49810 17 34 44.29 +23 26 14.7          19.6 V EF046G96
     K08F00N  C2008 03 27.50128 17 34 43.68 +23 26 11.5          19.8 V EF046G96
     K08F00N  C2008 03 27.50441 17 34 43.10 +23 26 08.1          19.6 V EF046G96
     K08F00N tC2008 03 28.44981 17 31 49.86 +23 09 50.5          20.1 V EF046291
     K08F00N tC2008 03 28.45372 17 31 49.08 +23 09 45.8          19.9 V EF046291
     K08F00N tC2008 03 28.45780 17 31 48.34 +23 09 41.9          20.0 V EF046291
     K08F00N  C2008 03 28.46136 17 31 47.64 +23 09 38.0          19.7 V EF046G96
     K08F00N  C2008 03 28.46849 17 31 46.30 +23 09 30.3          19.5 V EF046G96
     K08F00N  C2008 03 28.47201 17 31 45.62 +23 09 27.0          19.6 V EF046G96

Observer details:
291 LPL/Spacewatch II.  Observer T. H. Bressi.  1.8-m f/2.7 reflector + CCD.
G96 Mt. Lemmon Survey.  Observer R. A. Kowalski.  Measurers E. C. Beshore,
    A. Boattini, G. J. Garradd, A. R. Gibbs, A. D. Grauer, R. E. Hill,
    R. A. Kowalski, S. M. Larson, R. H. McNaught.  1.5-m reflector + CCD.

Orbital elements:
2008 FN                                             PHA, Earth MOID = 0.0149 AU
Epoch 2008 May 14.0 TT = JDT 2454600.5                  MPC
M  29.81074              (2000.0)            P               Q
n   0.25045181     Peri.   58.66895     -0.14387023     -0.80667036
a   2.4926039      Node    52.10405     +0.46049143     -0.56728633
e   0.6864032      Incl.   46.58549     +0.87592751     +0.16573820
P   3.94           H   18.1           G   0.15           U   9
Residuals in seconds of arc
080327 G96  0.0   0.3-    080327 G96  0.1+  0.2+    080328 291  0.1+  0.0
080327 G96  0.3+  0.2-    080327 G96  0.1-  0.3+    080328 G96  0.0   0.1-
080327 G96  0.1+  0.0     080327 G96  0.1-  0.0     080328 G96  0.2+  0.4-
080327 G96  0.3-  0.1-    080328 291  0.1+  0.4+    080328 G96  0.1+  0.0
080327 G96  0.0   0.1+    080328 291  0.4-  0.3-

Ephemeris:
2008 FN                  a,e,i = 2.49, 0.69, 47                  q = 0.7817
Date    TT    R. A. (2000) Decl.     Delta      r     Elong.  Phase     V
2008 03 25    17 42.04   +24 07.2    0.698    1.287    97.2    50.3    19.7
2008 04 04    17 09.85   +21 02.6    0.663    1.390   111.7    42.0    19.6
2008 04 14    16 30.43   +16 48.8    0.645    1.492   128.3    31.9    19.4
2008 04 24    15 47.55   +11 23.7    0.659    1.592   145.2    21.1    19.2
2008 05 04    15 07.34   +05 27.6    0.713    1.691   157.9    13.0    19.3
2008 05 14    14 34.70   -00 05.2    0.810    1.787   157.8    12.3    19.6
2008 05 24    14 11.28   -04 44.4    0.942    1.881   148.2    16.5    20.2
2008 06 03    13 56.14   -08 29.1    1.103    1.972   137.2    20.5    20.8
2008 06 13    13 47.67   -11 31.0    1.284    2.061   126.9    23.2    21.3
2008 06 23    13 44.25   -14 02.6    1.480    2.147   117.4    24.9    21.8

Sonia Keys                   (C) Copyright 2008 MPC           M.P.E.C. 2008-F46

Read MPEC 2008-F45 Read MPEC 2008-F47


Our Web policy. Index to the CBAT/MPC/ICQ pages.


Valid HTML 4.01!